Year,Month,Day,Hour,Minute,Value (Times are PST for windgust in km/hr)
2017,05,23,00,00,1.60
2017,05,23,00,01,1.60
2017,05,23,00,02,3.20
2017,05,23,00,03,3.20
2017,05,23,00,04,3.20
2017,05,23,00,05,3.20
2017,05,23,00,06,3.20
2017,05,23,00,07,1.60
2017,05,23,00,08,1.60
2017,05,23,00,24,1.60
2017,05,23,00,25,3.20
2017,05,23,00,26,3.20
2017,05,23,00,27,1.60
2017,05,23,00,42,1.60
2017,05,23,00,43,1.60
2017,05,23,00,44,1.60
2017,05,23,00,45,1.60
2017,05,23,00,47,1.60
2017,05,23,00,48,1.60
2017,05,23,00,54,1.60
2017,05,23,00,55,1.60
2017,05,23,00,57,1.60
2017,05,23,00,58,1.60
2017,05,23,00,59,1.60
2017,05,23,01,00,1.60
2017,05,23,01,01,1.60
2017,05,23,01,02,1.60
2017,05,23,01,16,1.60
2017,05,23,01,17,1.60
2017,05,23,01,18,1.60
2017,05,23,01,19,4.80
2017,05,23,01,20,4.80
2017,05,23,01,21,4.80
2017,05,23,01,22,4.80
2017,05,23,01,23,6.40
2017,05,23,01,24,6.40
2017,05,23,01,25,4.80
2017,05,23,01,26,4.80
2017,05,23,01,27,6.40
2017,05,23,01,28,4.80
2017,05,23,01,29,6.40
2017,05,23,01,30,6.40
2017,05,23,01,31,4.80
2017,05,23,01,32,3.20
2017,05,23,01,33,1.60
2017,05,23,01,34,1.60
2017,05,23,01,39,1.60
2017,05,23,01,40,1.60
2017,05,23,01,41,1.60
2017,05,23,01,42,1.60
2017,05,23,01,43,1.60
2017,05,23,01,44,1.60
2017,05,23,01,45,1.60
2017,05,23,01,46,1.60
2017,05,23,01,47,1.60
2017,05,23,01,48,1.60
2017,05,23,02,11,1.60
2017,05,23,02,12,1.60
2017,05,23,02,13,1.60
2017,05,23,02,14,1.60
2017,05,23,02,15,3.20
2017,05,23,02,16,3.20
2017,05,23,02,17,3.20
2017,05,23,02,18,3.20
2017,05,23,02,19,1.60
2017,05,23,02,20,1.60
2017,05,23,02,21,1.60
2017,05,23,02,22,1.60
2017,05,23,02,23,1.60
2017,05,23,02,24,1.60
2017,05,23,02,25,1.60
2017,05,23,02,26,1.60
2017,05,23,02,27,1.60
2017,05,23,02,28,1.60
2017,05,23,02,29,1.60
2017,05,23,02,32,1.60
2017,05,23,02,33,1.60
2017,05,23,02,34,1.60
2017,05,23,02,35,1.60
2017,05,23,02,36,1.60
2017,05,23,02,41,1.60
2017,05,23,02,44,1.60
2017,05,23,02,45,1.60
2017,05,23,02,46,3.20
2017,05,23,02,47,3.20
2017,05,23,02,49,1.60
2017,05,23,02,59,1.60
2017,05,23,03,00,1.60
2017,05,23,03,01,3.20
2017,05,23,03,02,1.60
2017,05,23,03,03,1.60
2017,05,23,03,04,1.60
2017,05,23,03,05,1.60
2017,05,23,03,06,1.60
2017,05,23,03,07,3.20
2017,05,23,03,08,3.20
2017,05,23,03,09,3.20
2017,05,23,03,10,1.60
2017,05,23,03,11,1.60
2017,05,23,03,12,1.60
2017,05,23,03,13,1.60
2017,05,23,03,14,1.60
2017,05,23,03,15,3.20
2017,05,23,03,16,4.80
2017,05,23,03,17,4.80
2017,05,23,03,18,4.80
2017,05,23,03,19,3.20
2017,05,23,03,20,3.20
2017,05,23,03,21,1.60
2017,05,23,03,22,3.20
2017,05,23,03,23,3.20
2017,05,23,03,24,4.80
2017,05,23,03,25,4.80
2017,05,23,03,26,3.20
2017,05,23,03,27,3.20
2017,05,23,03,28,3.20
2017,05,23,03,29,1.60
2017,05,23,03,30,1.60
2017,05,23,03,31,1.60
2017,05,23,03,37,1.60
2017,05,23,03,38,3.20
2017,05,23,03,39,3.20
2017,05,23,03,40,3.20
2017,05,23,03,41,3.20
2017,05,23,03,42,3.20
2017,05,23,03,43,3.20
2017,05,23,03,44,1.60
2017,05,23,03,45,1.60
2017,05,23,03,46,1.60
2017,05,23,03,59,1.60
2017,05,23,04,00,3.20
2017,05,23,04,01,3.20
2017,05,23,04,02,3.20
2017,05,23,04,03,3.20
2017,05,23,04,04,3.20
2017,05,23,04,05,1.60
2017,05,23,04,07,1.60
2017,05,23,04,08,1.60
2017,05,23,04,09,1.60
2017,05,23,04,10,1.60
2017,05,23,04,26,1.60
2017,05,23,04,27,1.60
2017,05,23,04,28,1.60
2017,05,23,04,29,3.20
2017,05,23,04,30,3.20
2017,05,23,04,31,3.20
2017,05,23,04,32,3.20
2017,05,23,04,33,3.20
2017,05,23,04,34,3.20
2017,05,23,04,36,1.60
2017,05,23,04,37,1.60
2017,05,23,04,38,1.60
2017,05,23,04,39,1.60
2017,05,23,04,52,1.60
2017,05,23,04,58,1.60
2017,05,23,05,04,1.60
2017,05,23,05,05,1.60
2017,05,23,05,06,1.60
2017,05,23,05,07,3.20
2017,05,23,05,08,3.20
2017,05,23,05,09,1.60
2017,05,23,05,10,3.20
2017,05,23,05,11,3.20
2017,05,23,05,12,3.20
2017,05,23,05,13,3.20
2017,05,23,05,14,3.20
2017,05,23,05,15,4.80
2017,05,23,05,16,3.20
2017,05,23,05,17,3.20
2017,05,23,05,18,4.80
2017,05,23,05,19,3.20
2017,05,23,05,20,3.20
2017,05,23,05,21,4.80
2017,05,23,05,22,4.80
2017,05,23,05,23,4.80
2017,05,23,05,24,6.40
2017,05,23,05,25,4.80
2017,05,23,05,26,6.40
2017,05,23,05,27,4.80
2017,05,23,05,28,4.80
2017,05,23,05,29,4.80
2017,05,23,05,30,4.80
2017,05,23,05,31,3.20
2017,05,23,05,32,4.80
2017,05,23,05,33,4.80
2017,05,23,05,34,3.20
2017,05,23,05,35,3.20
2017,05,23,05,36,4.80
2017,05,23,05,37,4.80
2017,05,23,05,38,3.20
2017,05,23,05,39,3.20
2017,05,23,05,40,3.20
2017,05,23,05,41,3.20
2017,05,23,05,42,3.20
2017,05,23,05,43,1.60
2017,05,23,05,44,1.60
2017,05,23,05,45,1.60
2017,05,23,05,46,1.60
2017,05,23,05,47,1.60
2017,05,23,05,48,3.20
2017,05,23,05,49,3.20
2017,05,23,05,50,3.20
2017,05,23,05,51,3.20
2017,05,23,05,52,3.20
2017,05,23,05,53,1.60
2017,05,23,05,55,1.60
2017,05,23,05,56,4.80
2017,05,23,05,57,4.80
2017,05,23,05,58,4.80
2017,05,23,05,59,4.80
2017,05,23,06,00,4.80
2017,05,23,06,01,6.40
2017,05,23,06,02,6.40
2017,05,23,06,03,8.10
2017,05,23,06,04,6.40
2017,05,23,06,05,3.20
2017,05,23,06,06,1.60
2017,05,23,06,07,1.60
2017,05,23,06,09,1.60
2017,05,23,06,10,3.20
2017,05,23,06,11,1.60
2017,05,23,06,12,1.60
2017,05,23,06,23,3.20
2017,05,23,06,24,1.60
2017,05,23,06,25,3.20
2017,05,23,06,26,1.60
2017,05,23,06,27,1.60
2017,05,23,06,28,1.60
2017,05,23,06,32,1.60
2017,05,23,06,33,1.60
2017,05,23,06,42,1.60
2017,05,23,06,43,1.60
2017,05,23,06,59,1.60
2017,05,23,07,00,1.60
2017,05,23,07,02,3.20
2017,05,23,07,03,3.20
2017,05,23,07,04,1.60
2017,05,23,07,07,3.20
2017,05,23,07,08,3.20
2017,05,23,07,09,1.60
2017,05,23,07,10,1.60
2017,05,23,07,12,3.20
2017,05,23,07,13,3.20
2017,05,23,07,14,3.20
2017,05,23,07,15,3.20
2017,05,23,07,16,3.20
2017,05,23,07,17,3.20
2017,05,23,07,18,3.20
2017,05,23,07,19,3.20
2017,05,23,07,20,1.60
2017,05,23,07,21,1.60
2017,05,23,07,22,1.60
2017,05,23,07,24,3.20
2017,05,23,07,25,3.20
2017,05,23,07,26,3.20
2017,05,23,07,27,4.80
2017,05,23,07,28,4.80
2017,05,23,07,29,3.20
2017,05,23,07,30,6.40
2017,05,23,07,31,4.80
2017,05,23,07,32,4.80
2017,05,23,07,33,4.80
2017,05,23,07,34,4.80
2017,05,23,07,35,4.80
2017,05,23,07,36,4.80
2017,05,23,07,37,8.10
2017,05,23,07,38,6.40
2017,05,23,07,39,4.80
2017,05,23,07,40,6.40
2017,05,23,07,41,6.40
2017,05,23,07,42,6.40
2017,05,23,07,43,6.40
2017,05,23,07,44,6.40
2017,05,23,07,45,4.80
2017,05,23,07,46,4.80
2017,05,23,07,47,6.40
2017,05,23,07,48,6.40
2017,05,23,07,49,6.40
2017,05,23,07,50,6.40
2017,05,23,07,51,6.40
2017,05,23,07,52,6.40
2017,05,23,07,53,8.10
2017,05,23,07,54,8.10
2017,05,23,07,55,6.40
2017,05,23,07,56,4.80
2017,05,23,07,57,3.20
2017,05,23,07,58,4.80
2017,05,23,07,59,4.80
2017,05,23,08,00,4.80
2017,05,23,08,01,4.80
2017,05,23,08,02,4.80
2017,05,23,08,03,4.80
2017,05,23,08,04,1.60
2017,05,23,08,05,6.40
2017,05,23,08,06,8.10
2017,05,23,08,07,4.80
2017,05,23,08,08,4.80
2017,05,23,08,09,3.20
2017,05,23,08,10,6.40
2017,05,23,08,11,6.40
2017,05,23,08,12,6.40
2017,05,23,08,13,6.40
2017,05,23,08,14,1.60
2017,05,23,08,15,3.20
2017,05,23,08,16,1.60
2017,05,23,08,17,4.80
2017,05,23,08,18,4.80
2017,05,23,08,19,1.60
2017,05,23,08,20,3.20
2017,05,23,08,21,1.60
2017,05,23,08,23,3.20
2017,05,23,08,24,4.80
2017,05,23,08,25,3.20
2017,05,23,08,26,4.80
2017,05,23,08,27,1.60
2017,05,23,08,28,1.60
2017,05,23,08,29,3.20
2017,05,23,08,30,3.20
2017,05,23,08,31,3.20
2017,05,23,08,32,4.80
2017,05,23,08,33,4.80
2017,05,23,08,34,4.80
2017,05,23,08,35,4.80
2017,05,23,08,36,6.40
2017,05,23,08,37,4.80
2017,05,23,08,38,6.40
2017,05,23,08,39,8.10
2017,05,23,08,40,6.40
2017,05,23,08,41,6.40
2017,05,23,08,42,6.40
2017,05,23,08,43,6.40
2017,05,23,08,44,3.20
2017,05,23,08,45,4.80
2017,05,23,08,46,6.40
2017,05,23,08,47,9.60
2017,05,23,08,48,9.60
2017,05,23,08,49,8.10
2017,05,23,08,50,8.10
2017,05,23,08,51,4.80
2017,05,23,08,52,3.20
2017,05,23,08,53,3.20
2017,05,23,08,54,1.60
2017,05,23,08,55,1.60
2017,05,23,08,56,1.60
2017,05,23,08,57,4.80
2017,05,23,08,58,3.20
2017,05,23,08,59,11.30
2017,05,23,09,00,9.60
2017,05,23,09,01,8.10
2017,05,23,09,02,9.60
2017,05,23,09,03,11.30
2017,05,23,09,04,14.50
2017,05,23,09,05,12.90
2017,05,23,09,06,17.70
2017,05,23,09,07,11.30
2017,05,23,09,08,6.40
2017,05,23,09,09,8.10
2017,05,23,09,10,8.10
2017,05,23,09,11,8.10
2017,05,23,09,12,9.60
2017,05,23,09,13,4.80
2017,05,23,09,14,8.10
2017,05,23,09,15,11.30
2017,05,23,09,16,8.10
2017,05,23,09,17,6.40
2017,05,23,09,18,4.80
2017,05,23,09,19,4.80
2017,05,23,09,20,4.80
2017,05,23,09,21,4.80
2017,05,23,09,22,8.10
2017,05,23,09,23,6.40
2017,05,23,09,24,4.80
2017,05,23,09,25,6.40
2017,05,23,09,26,6.40
2017,05,23,09,27,4.80
2017,05,23,09,28,8.10
2017,05,23,09,29,12.90
2017,05,23,09,30,12.90
2017,05,23,09,31,11.30
2017,05,23,09,32,9.60
2017,05,23,09,33,6.40
2017,05,23,09,34,8.10
2017,05,23,09,35,8.10
2017,05,23,09,36,8.10
2017,05,23,09,37,8.10
2017,05,23,09,38,4.80
2017,05,23,09,39,1.60
2017,05,23,09,40,3.20
2017,05,23,09,41,4.80
2017,05,23,09,42,4.80
2017,05,23,09,43,4.80
2017,05,23,09,44,6.40
2017,05,23,09,45,8.10
2017,05,23,09,46,3.20
2017,05,23,09,47,8.10
2017,05,23,09,48,9.60
2017,05,23,09,49,9.60
2017,05,23,09,50,9.60
2017,05,23,09,51,9.60
2017,05,23,09,52,11.30
2017,05,23,09,53,8.10
2017,05,23,09,54,8.10
2017,05,23,09,55,8.10
2017,05,23,09,56,8.10
2017,05,23,09,57,9.60
2017,05,23,09,58,6.40
2017,05,23,09,59,4.80
2017,05,23,10,00,4.80
2017,05,23,10,01,1.60
2017,05,23,10,02,3.20
2017,05,23,10,03,3.20
2017,05,23,10,04,4.80
2017,05,23,10,05,4.80
2017,05,23,10,06,6.40
2017,05,23,10,07,8.10
2017,05,23,10,08,6.40
2017,05,23,10,09,8.10
2017,05,23,10,10,6.40
2017,05,23,10,11,8.10
2017,05,23,10,12,8.10
2017,05,23,10,13,6.40
2017,05,23,10,14,8.10
2017,05,23,10,15,8.10
2017,05,23,10,16,8.10
2017,05,23,10,17,9.60
2017,05,23,10,18,12.90
2017,05,23,10,19,12.90
2017,05,23,10,20,11.30
2017,05,23,10,21,11.30
2017,05,23,10,22,11.30
2017,05,23,10,23,11.30
2017,05,23,10,24,8.10
2017,05,23,10,25,11.30
2017,05,23,10,26,11.30
2017,05,23,10,27,11.30
2017,05,23,10,28,8.10
2017,05,23,10,29,8.10
2017,05,23,10,30,11.30
2017,05,23,10,31,11.30
2017,05,23,10,32,11.30
2017,05,23,10,33,9.60
2017,05,23,10,34,11.30
2017,05,23,10,35,8.10
2017,05,23,10,36,11.30
2017,05,23,10,37,12.90
2017,05,23,10,38,9.60
2017,05,23,10,39,8.10
2017,05,23,10,40,12.90
2017,05,23,10,41,11.30
2017,05,23,10,42,9.60
2017,05,23,10,43,9.60
2017,05,23,10,44,11.30
2017,05,23,10,45,11.30
2017,05,23,10,46,14.50
2017,05,23,10,47,6.40
2017,05,23,10,48,12.90
2017,05,23,10,49,8.10
2017,05,23,10,50,8.10
2017,05,23,10,51,12.90
2017,05,23,10,52,11.30
2017,05,23,10,53,12.90
2017,05,23,10,54,11.30
2017,05,23,10,55,11.30
2017,05,23,10,56,11.30
2017,05,23,10,57,11.30
2017,05,23,10,58,12.90
2017,05,23,10,59,12.90
2017,05,23,11,00,12.90
2017,05,23,11,01,9.60
2017,05,23,11,02,9.60
2017,05,23,11,03,9.60
2017,05,23,11,04,16.10
2017,05,23,11,05,9.60
2017,05,23,11,06,8.10
2017,05,23,11,07,9.60
2017,05,23,11,08,9.60
2017,05,23,11,09,9.60
2017,05,23,11,10,12.90
2017,05,23,11,11,12.90
2017,05,23,11,12,12.90
2017,05,23,11,13,9.60
2017,05,23,11,14,9.60
2017,05,23,11,15,9.60
2017,05,23,11,16,11.30
2017,05,23,11,17,11.30
2017,05,23,11,18,12.90
2017,05,23,11,19,12.90
2017,05,23,11,20,14.50
2017,05,23,11,21,12.90
2017,05,23,11,22,9.60
2017,05,23,11,23,8.10
2017,05,23,11,24,12.90
2017,05,23,11,25,8.10
2017,05,23,11,26,8.10
2017,05,23,11,27,8.10
2017,05,23,11,28,8.10
2017,05,23,11,29,6.40
2017,05,23,11,30,11.30
2017,05,23,11,31,12.90
2017,05,23,11,32,11.30
2017,05,23,11,33,9.60
2017,05,23,11,34,11.30
2017,05,23,11,35,12.90
2017,05,23,11,36,16.10
2017,05,23,11,37,14.50
2017,05,23,11,38,12.90
2017,05,23,11,39,12.90
2017,05,23,11,40,11.30
2017,05,23,11,41,12.90
2017,05,23,11,42,11.30
2017,05,23,11,43,8.10
2017,05,23,11,44,9.60
2017,05,23,11,45,14.50
2017,05,23,11,46,14.50
2017,05,23,11,47,14.50
2017,05,23,11,48,17.70
2017,05,23,11,49,17.70
2017,05,23,11,50,16.10
2017,05,23,11,51,12.90
2017,05,23,11,52,16.10
2017,05,23,11,53,16.10
2017,05,23,11,54,14.50
2017,05,23,11,55,14.50
2017,05,23,11,56,14.50
2017,05,23,11,57,17.70
2017,05,23,11,58,16.10
2017,05,23,11,59,16.10
2017,05,23,12,00,14.50
2017,05,23,12,01,8.10
2017,05,23,12,02,11.30
2017,05,23,12,03,11.30
2017,05,23,12,04,12.90
2017,05,23,12,05,11.30
2017,05,23,12,06,11.30
2017,05,23,12,07,14.50
2017,05,23,12,08,16.10
2017,05,23,12,09,9.60
2017,05,23,12,10,9.60
2017,05,23,12,11,16.10
2017,05,23,12,12,12.90
2017,05,23,12,13,9.60
2017,05,23,12,14,14.50
2017,05,23,12,15,8.10
2017,05,23,12,16,11.30
2017,05,23,12,17,11.30
2017,05,23,12,18,11.30
2017,05,23,12,19,12.90
2017,05,23,12,20,8.10
2017,05,23,12,21,11.30
2017,05,23,12,22,9.60
2017,05,23,12,23,11.30
2017,05,23,12,24,11.30
2017,05,23,12,25,12.90
2017,05,23,12,26,12.90
2017,05,23,12,27,11.30
2017,05,23,12,28,11.30
2017,05,23,12,29,11.30
2017,05,23,12,30,12.90
2017,05,23,12,31,8.10
2017,05,23,12,32,9.60
2017,05,23,12,33,11.30
2017,05,23,12,34,11.30
2017,05,23,12,35,12.90
2017,05,23,12,36,11.30
2017,05,23,12,37,11.30
2017,05,23,12,38,12.90
2017,05,23,12,39,12.90
2017,05,23,12,40,11.30
2017,05,23,12,41,14.50
2017,05,23,12,42,9.60
2017,05,23,12,43,12.90
2017,05,23,12,44,11.30
2017,05,23,12,45,9.60
2017,05,23,12,46,8.10
2017,05,23,12,47,12.90
2017,05,23,12,48,9.60
2017,05,23,12,49,6.40
2017,05,23,12,50,9.60
2017,05,23,12,51,9.60
2017,05,23,12,52,9.60
2017,05,23,12,53,11.30
2017,05,23,12,54,11.30
2017,05,23,12,55,8.10
2017,05,23,12,56,9.60
2017,05,23,12,57,9.60
2017,05,23,12,58,8.10
2017,05,23,12,59,8.10
2017,05,23,13,00,11.30
2017,05,23,13,01,11.30
2017,05,23,13,02,12.90
2017,05,23,13,03,12.90
2017,05,23,13,04,11.30
2017,05,23,13,05,9.60
2017,05,23,13,06,14.50
2017,05,23,13,07,14.50
2017,05,23,13,08,14.50
2017,05,23,13,09,11.30
2017,05,23,13,10,12.90
2017,05,23,13,11,12.90
2017,05,23,13,12,12.90
2017,05,23,13,13,12.90
2017,05,23,13,14,14.50
2017,05,23,13,15,12.90
2017,05,23,13,16,11.30
2017,05,23,13,17,17.70
2017,05,23,13,18,12.90
2017,05,23,13,19,12.90
2017,05,23,13,20,14.50
2017,05,23,13,21,11.30
2017,05,23,13,22,6.40
2017,05,23,13,23,8.10
2017,05,23,13,24,8.10
2017,05,23,13,25,11.30
2017,05,23,13,26,12.90
2017,05,23,13,27,8.10
2017,05,23,13,28,8.10
2017,05,23,13,29,16.10
2017,05,23,13,30,20.90
2017,05,23,13,31,16.10
2017,05,23,13,32,17.70
2017,05,23,13,33,14.50
2017,05,23,13,34,11.30
2017,05,23,13,35,11.30
2017,05,23,13,36,14.50
2017,05,23,13,37,16.10
2017,05,23,13,38,16.10
2017,05,23,13,39,4.80
2017,05,23,13,40,1.60
2017,05,23,13,41,6.40
2017,05,23,13,42,9.60
2017,05,23,13,43,8.10
2017,05,23,13,44,8.10
2017,05,23,13,45,8.10
2017,05,23,13,46,8.10
2017,05,23,13,47,8.10
2017,05,23,13,48,8.10
2017,05,23,13,49,6.40
2017,05,23,13,50,9.60
2017,05,23,13,51,8.10
2017,05,23,13,52,20.90
2017,05,23,13,53,24.20
2017,05,23,13,54,12.90
2017,05,23,13,55,14.50
2017,05,23,13,56,17.70
2017,05,23,13,57,25.70
2017,05,23,13,58,19.30
2017,05,23,13,59,17.70
2017,05,23,14,00,33.80
2017,05,23,14,01,29.00
2017,05,23,14,02,35.40
2017,05,23,14,03,35.40
2017,05,23,14,04,27.40
2017,05,23,14,05,41.80
2017,05,23,14,06,33.80
2017,05,23,14,07,29.00
2017,05,23,14,08,24.20
2017,05,23,14,09,35.40
2017,05,23,14,10,30.60
2017,05,23,14,11,19.30
2017,05,23,14,12,33.80
2017,05,23,14,13,30.60
2017,05,23,14,14,30.60
2017,05,23,14,15,33.80
2017,05,23,14,16,25.70
2017,05,23,14,17,27.40
2017,05,23,14,18,37.00
2017,05,23,14,19,32.20
2017,05,23,14,20,32.20
2017,05,23,14,21,46.70
2017,05,23,14,22,27.40
2017,05,23,14,23,32.20
2017,05,23,14,24,37.00
2017,05,23,14,25,41.80
2017,05,23,14,26,41.80
2017,05,23,14,27,16.10
2017,05,23,14,28,35.40
2017,05,23,14,29,30.60
2017,05,23,14,30,35.40
2017,05,23,14,31,30.60
2017,05,23,14,32,41.80
2017,05,23,14,33,30.60
2017,05,23,14,34,33.80
2017,05,23,14,35,37.00
2017,05,23,14,36,32.20
2017,05,23,14,37,27.40
2017,05,23,14,38,25.70
2017,05,23,14,39,30.60
2017,05,23,14,40,33.80
2017,05,23,14,41,37.00
2017,05,23,14,42,32.20
2017,05,23,14,43,35.40
2017,05,23,14,44,30.60
2017,05,23,14,45,35.40
2017,05,23,14,46,25.70
2017,05,23,14,47,46.70
2017,05,23,14,48,35.40
2017,05,23,14,49,27.40
2017,05,23,14,50,30.60
2017,05,23,14,51,25.70
2017,05,23,14,52,29.00
2017,05,23,14,53,30.60
2017,05,23,14,54,27.40
2017,05,23,14,55,41.80
2017,05,23,14,56,29.00
2017,05,23,14,57,33.80
2017,05,23,14,58,30.60
2017,05,23,14,59,32.20
2017,05,23,15,00,32.20
2017,05,23,15,01,40.20
2017,05,23,15,02,48.30
2017,05,23,15,03,37.00
2017,05,23,15,04,29.00
2017,05,23,15,05,33.80
2017,05,23,15,06,33.80
2017,05,23,15,07,43.50
2017,05,23,15,08,38.60
2017,05,23,15,09,38.60
2017,05,23,15,10,38.60
2017,05,23,15,11,33.80
2017,05,23,15,12,45.10
2017,05,23,15,13,25.70
2017,05,23,15,14,35.40
2017,05,23,15,15,45.10
2017,05,23,15,16,40.20
2017,05,23,15,17,33.80
2017,05,23,15,18,43.50
2017,05,23,15,19,38.60
2017,05,23,15,20,38.60
2017,05,23,15,21,40.20
2017,05,23,15,22,46.70
2017,05,23,15,23,37.00
2017,05,23,15,24,46.70
2017,05,23,15,25,35.40
2017,05,23,15,26,45.10
2017,05,23,15,27,40.20
2017,05,23,15,28,32.20
2017,05,23,15,29,37.00
2017,05,23,15,30,46.70
2017,05,23,15,31,41.80
2017,05,23,15,32,35.40
2017,05,23,15,33,35.40
2017,05,23,15,34,41.80
2017,05,23,15,35,41.80
2017,05,23,15,36,40.20
2017,05,23,15,37,46.70
2017,05,23,15,38,33.80
2017,05,23,15,39,53.10
2017,05,23,15,40,40.20
2017,05,23,15,41,43.50
2017,05,23,15,42,41.80
2017,05,23,15,43,33.80
2017,05,23,15,44,37.00
2017,05,23,15,45,38.60
2017,05,23,15,46,46.70
2017,05,23,15,47,41.80
2017,05,23,15,48,41.80
2017,05,23,15,49,33.80
2017,05,23,15,50,41.80
2017,05,23,15,51,40.20
2017,05,23,15,52,33.80
2017,05,23,15,53,38.60
2017,05,23,15,54,35.40
2017,05,23,15,55,35.40
2017,05,23,15,56,43.50
2017,05,23,15,57,45.10
2017,05,23,15,58,40.20
2017,05,23,15,59,43.50
2017,05,23,16,00,40.20
2017,05,23,16,01,38.60
2017,05,23,16,02,35.40
2017,05,23,16,03,38.60
2017,05,23,16,04,37.00
2017,05,23,16,05,35.40
2017,05,23,16,06,38.60
2017,05,23,16,07,40.20
2017,05,23,16,08,29.00
2017,05,23,16,09,35.40
2017,05,23,16,10,35.40
2017,05,23,16,11,29.00
2017,05,23,16,12,33.80
2017,05,23,16,13,38.60
2017,05,23,16,14,32.20
2017,05,23,16,15,27.40
2017,05,23,16,16,35.40
2017,05,23,16,17,38.60
2017,05,23,16,18,38.60
2017,05,23,16,19,27.40
2017,05,23,16,20,27.40
2017,05,23,16,21,35.40
2017,05,23,16,22,38.60
2017,05,23,16,23,29.00
2017,05,23,16,24,27.40
2017,05,23,16,25,33.80
2017,05,23,16,26,35.40
2017,05,23,16,27,40.20
2017,05,23,16,28,38.60
2017,05,23,16,29,27.40
2017,05,23,16,30,32.20
2017,05,23,16,31,38.60
2017,05,23,16,32,33.80
2017,05,23,16,33,29.00
2017,05,23,16,34,30.60
2017,05,23,16,35,38.60
2017,05,23,16,36,35.40
2017,05,23,16,37,29.00
2017,05,23,16,38,27.40
2017,05,23,16,39,27.40
2017,05,23,16,40,16.10
2017,05,23,16,41,22.50
2017,05,23,16,42,29.00
2017,05,23,16,43,19.30
2017,05,23,16,44,19.30
2017,05,23,16,45,19.30
2017,05,23,16,46,19.30
2017,05,23,16,47,24.20
2017,05,23,16,48,25.70
2017,05,23,16,49,25.70
2017,05,23,16,50,19.30
2017,05,23,16,51,16.10
2017,05,23,16,52,22.50
2017,05,23,16,53,27.40
2017,05,23,16,54,20.90
2017,05,23,16,55,25.70
2017,05,23,16,56,22.50
2017,05,23,16,57,19.30
2017,05,23,16,58,29.00
2017,05,23,16,59,24.20
2017,05,23,17,00,20.90
2017,05,23,17,01,17.70
2017,05,23,17,02,27.40
2017,05,23,17,03,27.40
2017,05,23,17,04,22.50
2017,05,23,17,05,20.90
2017,05,23,17,06,24.20
2017,05,23,17,07,22.50
2017,05,23,17,08,24.20
2017,05,23,17,09,19.30
2017,05,23,17,10,33.80
2017,05,23,17,11,29.00
2017,05,23,17,12,24.20
2017,05,23,17,13,24.20
2017,05,23,17,14,22.50
2017,05,23,17,15,16.10
2017,05,23,17,16,16.10
2017,05,23,17,17,24.20
2017,05,23,17,18,24.20
2017,05,23,17,19,12.90
2017,05,23,17,20,29.00
2017,05,23,17,21,12.90
2017,05,23,17,22,20.90
2017,05,23,17,23,20.90
2017,05,23,17,24,27.40
2017,05,23,17,25,30.60
2017,05,23,17,26,25.70
2017,05,23,17,27,29.00
2017,05,23,17,28,29.00
2017,05,23,17,29,29.00
2017,05,23,17,30,20.90
2017,05,23,17,31,22.50
2017,05,23,17,32,20.90
2017,05,23,17,33,27.40
2017,05,23,17,34,33.80
2017,05,23,17,35,30.60
2017,05,23,17,36,25.70
2017,05,23,17,37,30.60
2017,05,23,17,38,20.90
2017,05,23,17,39,14.50
2017,05,23,17,40,27.40
2017,05,23,17,41,25.70
2017,05,23,17,42,29.00
2017,05,23,17,43,24.20
2017,05,23,17,44,27.40
2017,05,23,17,45,19.30
2017,05,23,17,46,16.10
2017,05,23,17,47,27.40
2017,05,23,17,48,19.30
2017,05,23,17,49,24.20
2017,05,23,17,50,22.50
2017,05,23,17,51,33.80
2017,05,23,17,52,30.60
2017,05,23,17,53,24.20
2017,05,23,17,54,40.20
2017,05,23,17,55,29.00
2017,05,23,17,56,24.20
2017,05,23,17,57,27.40
2017,05,23,17,58,37.00
2017,05,23,17,59,35.40
2017,05,23,18,00,35.40
2017,05,23,18,01,30.60
2017,05,23,18,02,38.60
2017,05,23,18,03,43.50
2017,05,23,18,04,46.70
2017,05,23,18,05,35.40
2017,05,23,18,06,35.40
2017,05,23,18,07,37.00
2017,05,23,18,08,35.40
2017,05,23,18,09,43.50
2017,05,23,18,10,46.70
2017,05,23,18,11,35.40
2017,05,23,18,12,40.20
2017,05,23,18,13,33.80
2017,05,23,18,14,32.20
2017,05,23,18,15,35.40
2017,05,23,18,16,33.80
2017,05,23,18,17,35.40
2017,05,23,18,18,35.40
2017,05,23,18,19,37.00
2017,05,23,18,20,33.80
2017,05,23,18,21,29.00
2017,05,23,18,22,27.40
2017,05,23,18,23,40.20
2017,05,23,18,24,40.20
2017,05,23,18,25,40.20
2017,05,23,18,26,35.40
2017,05,23,18,27,29.00
2017,05,23,18,28,30.60
2017,05,23,18,29,29.00
2017,05,23,18,30,43.50
2017,05,23,18,31,33.80
2017,05,23,18,32,30.60
2017,05,23,18,33,27.40
2017,05,23,18,34,38.60
2017,05,23,18,35,30.60
2017,05,23,18,36,25.70
2017,05,23,18,37,45.10
2017,05,23,18,38,43.50
2017,05,23,18,39,43.50
2017,05,23,18,40,37.00
2017,05,23,18,41,37.00
2017,05,23,18,42,35.40
2017,05,23,18,43,33.80
2017,05,23,18,44,35.40
2017,05,23,18,45,33.80
2017,05,23,18,46,33.80
2017,05,23,18,47,30.60
2017,05,23,18,48,27.40
2017,05,23,18,49,30.60
2017,05,23,18,50,35.40
2017,05,23,18,51,38.60
2017,05,23,18,52,38.60
2017,05,23,18,53,30.60
2017,05,23,18,54,38.60
2017,05,23,18,55,37.00
2017,05,23,18,56,40.20
2017,05,23,18,57,30.60
2017,05,23,18,58,32.20
2017,05,23,18,59,27.40
2017,05,23,19,00,32.20
2017,05,23,19,01,40.20
2017,05,23,19,02,32.20
2017,05,23,19,03,35.40
2017,05,23,19,04,24.20
2017,05,23,19,05,24.20
2017,05,23,19,06,43.50
2017,05,23,19,07,35.40
2017,05,23,19,08,33.80
2017,05,23,19,09,29.00
2017,05,23,19,10,27.40
2017,05,23,19,11,30.60
2017,05,23,19,12,29.00
2017,05,23,19,13,25.70
2017,05,23,19,14,33.80
2017,05,23,19,15,38.60
2017,05,23,19,16,40.20
2017,05,23,19,17,37.00
2017,05,23,19,18,29.00
2017,05,23,19,19,30.60
2017,05,23,19,20,30.60
2017,05,23,19,21,29.00
2017,05,23,19,22,35.40
2017,05,23,19,23,41.80
2017,05,23,19,24,35.40
2017,05,23,19,25,32.20
2017,05,23,19,26,37.00
2017,05,23,19,27,30.60
2017,05,23,19,28,29.00
2017,05,23,19,29,16.10
2017,05,23,19,30,20.90
2017,05,23,19,31,29.00
2017,05,23,19,32,29.00
2017,05,23,19,33,29.00
2017,05,23,19,34,24.20
2017,05,23,19,35,30.60
2017,05,23,19,36,22.50
2017,05,23,19,37,30.60
2017,05,23,19,38,30.60
2017,05,23,19,39,24.20
2017,05,23,19,40,17.70
2017,05,23,19,41,32.20
2017,05,23,19,42,33.80
2017,05,23,19,43,27.40
2017,05,23,19,44,25.70
2017,05,23,19,45,25.70
2017,05,23,19,46,25.70
2017,05,23,19,47,22.50
2017,05,23,19,48,22.50
2017,05,23,19,49,24.20
2017,05,23,19,50,22.50
2017,05,23,19,51,17.70
2017,05,23,19,52,16.10
2017,05,23,19,53,16.10
2017,05,23,19,54,16.10
2017,05,23,19,55,14.50
2017,05,23,19,56,19.30
2017,05,23,19,57,22.50
2017,05,23,19,58,24.20
2017,05,23,19,59,19.30
2017,05,23,20,00,22.50
2017,05,23,20,01,20.90
2017,05,23,20,02,17.70
2017,05,23,20,03,17.70
2017,05,23,20,04,24.20
2017,05,23,20,05,29.00
2017,05,23,20,06,19.30
2017,05,23,20,07,27.40
2017,05,23,20,08,35.40
2017,05,23,20,09,27.40
2017,05,23,20,10,20.90
2017,05,23,20,11,25.70
2017,05,23,20,12,19.30
2017,05,23,20,13,17.70
2017,05,23,20,14,22.50
2017,05,23,20,15,27.40
2017,05,23,20,16,27.40
2017,05,23,20,17,20.90
2017,05,23,20,18,27.40
2017,05,23,20,19,20.90
2017,05,23,20,20,20.90
2017,05,23,20,21,32.20
2017,05,23,20,22,27.40
2017,05,23,20,23,27.40
2017,05,23,20,24,29.00
2017,05,23,20,25,32.20
2017,05,23,20,26,35.40
2017,05,23,20,27,29.00
2017,05,23,20,28,22.50
2017,05,23,20,29,27.40
2017,05,23,20,30,17.70
2017,05,23,20,31,29.00
2017,05,23,20,32,24.20
2017,05,23,20,33,20.90
2017,05,23,20,34,19.30
2017,05,23,20,35,19.30
2017,05,23,20,36,17.70
2017,05,23,20,37,22.50
2017,05,23,20,38,19.30
2017,05,23,20,39,37.00
2017,05,23,20,40,27.40
2017,05,23,20,41,33.80
2017,05,23,20,42,29.00
2017,05,23,20,43,32.20
2017,05,23,20,44,33.80
2017,05,23,20,45,33.80
2017,05,23,20,46,22.50
2017,05,23,20,47,24.20
2017,05,23,20,48,17.70
2017,05,23,20,49,25.70
2017,05,23,20,50,29.00
2017,05,23,20,51,29.00
2017,05,23,20,52,25.70
2017,05,23,20,53,27.40